Погода в Армавире

Погода в Армавире : погода сейчас, прогноз погоды и архив. Всё, что Вы хотите узнать о погоде в Армавире!

Поиск расширенной информации на нашем сайте:

Другие новости

Новости СМИ2

Главная страница сайта

Новости сайта

02.10.2013

Напоминаем, что на нашем новом сайте вы можете получить высокодетализированные прогнозы погоды по пунктам России, СНГ и мира (включающие важные для авиации метеовеличины, такие как направление и скорость ветра, видимость, явления погоды, количество и форма облачности, нижняя и верхняя граница облачности), а также ознакомиться с разнообразными материалами по авиационной метеорологии и подборкой полезных ссылок на эту тему.

Сайт Метеоцентр.Азия посвящён разработке технологий оптимизации авиаметеорологического обслуживания, включая проектирование и перспективное создание нескольких автоматизированных авиаметеорологических систем:
- система выпуска высокодетальных прогностических карт явлений погоды для нижнего воздушного пространства по России и ближнему зарубежью;
- система верификации прогнозов TAF (выпускаемых синоптиками официальных АМСГ РФ и ближнего зарубежья) и AUTOTAF (выпускаемых сайтом Метеоцентр.Азия) - выявление ошибок, онлайн-сопоставление с фактической погодой METAR, автоматическое внесение коррективов в прогнозы при резком отклонении фактической погоды от прогноза, подсчёт оправдываемости прогнозов по элементам и в целом;
- система обработки, анализа и отображения авиаметеорологической информации для применения провайдерами метеорологической информации.


Погода в Армавире - сегодня

Время (UTC), дата Ветер
(°,м/с) 
Видим.   Явления Облачность Т
(°С)
Тd
(°С)
f(%) Тe
(°С)
Pmin
(гПа)
dP
(гПа)
Po
(мм)
O2
(г/м3)
Тmin Tmax R s Состояние
почвы
03 21.02.17 190 (Ю) 10 км    ясно 
-1 -4 80 1016.6  -0.8  747  303  -1         
06 21.02.17 160 (Ю) 10 км    10/0 средняя, верхняя 
[Ac As|Cc]
+1.2 -2.4 77 +2  1016.6  -0.1  748  300  -1.2         
09 21.02.17 280 (З) 10 км    10/4 600 м средняя, верхняя 
[Sc|Ac trans|Ci]
+7.2 -1.9 52 +7  1015.5  -0.6  747  293           
12 21.02.17 260 (З) 10 км    10/9 600 м средняя 
[Sc|Ac und]
+8.1 +0.9 60 +7  1014.1  -1.4  746  292           
15 21.02.17 190 (Ю) 10 км    10/10 600 м 
[Sc]
+6.2 +0.2 65 +6  1014.6  0.4  746  294    +8.5       
18 21.02.17 200 (Ю) 10 км    10/10 600 м 
[Sc]
+4.7 -0.2 71 +4  1014.6  746  296           
21 21.02.17 150 (ЮВ) 1{15}  10 км  {ливн. осадки}  3/0 верхняя 
[Ci fib]
+2.2 -0.5 82 +3  1013.6  -1.2  745  298           
00 22.02.17 160 (Ю) 10 км  {ливн. осадки}  10/10 600 м кучево-дожд. 
[Cb cap]
+1.7 -0.2 87 +2  1013.2  -0.5  745  298           
03 22.02.17 140 (ЮВ) 10 км    10/0 верхняя 
[Ci]
+1 -0.9 87 1012.3  -0.9  744  299  +1    0.7     
06 22.02.17 130 (ЮВ) 10 км    10/0 верхняя 
[Cs]
+1.5 -0.6 86 +1  1012.2  744  298  +0.6         
09 22.02.17 140 (ЮВ) 10 км    10/0 средняя, верхняя 
[Ac lent|Cs]
+8.8 +0.6 56 +8  1009.6  -2  743  290           
12 22.02.17 180 (Ю) 10 км    10/6 1000 м верхняя 
[Sc|Cs]
+9.9 -1.4 45 +9  1007.6  -2  741  288           
15 22.02.17 210 (ЮЗ) 10 км  слаб. ливневой дождь  10/10 600 м кучево-дожд. 
[Cb cap]
+6.5 +2.6 76 +6  1008  0.1  742  291    +11.1  0.3     
18 22.02.17 260 (З) 10 км  слаб. ливневой дождь  10/10 600 м кучево-дожд. 
[Cb cap]
+5 +2.2 82 +3  1009.6  1.4  743  293           
21 22.02.17 250 (З) 5{13}  10 км  в посл. час ливневой дождь  10/10 600 м кучево-дожд. 
[Cb cap]
+2.3 +0.9 90 1013.3  3.5  745  298           
00 23.02.17 230 (ЮЗ) 10 км  {ливн. осадки}  10/10 600 м 
[Sc]
+2.8 +0.5 85 +1  1014.8  1.4  746  298           
03 23.02.17 240 (ЮЗ) 10 км    10/10 600 м 
[Sc]
+3 +0.3 82 +1  1015.1  0.3  747  297  +2.2       
06 23.02.17 250 (З) 10 км    9/3 600 м средняя, верхняя 
[Sc|Ac trans|Cc]
+4.5 +1 78 +3  1014.6  -0.4  746  296           
09 23.02.17 190 (Ю) 10 км    10/0 средняя 
[Ac As]
+6.7 +0.9 66 +5  1012.8  -1.6  745  293           
12 23.02.17 150 (ЮВ) 10 км    10/10 600 м 
[Sc]
+7.9 +0.4 59 +7  1009.5  -3.1  743  291           
15 23.02.17 240 (ЮЗ) 7-11{11}  10 км    10/10 600 м кучево-дожд. 
[Cb cap]
+9.4 +0.5 54 +7  1008.4  -1  742  289    +9.4       
18 23.02.17 220 (ЮЗ) 11-18{19}  10 км    10/0 средняя 
[Ac As]
+9.2 +0.8 56 +6  1007.3  -1.1  741  289           
21 23.02.17 250 (З) 6-11{19}  10 км  слаб. ливневой дождь  10/10 600 м кучево-дожд. 
[Cb cap]
+7.2 +3.1 75 +5  1009.2  1.8  742  291           
00 24.02.17 270 (З) 7-12{14}  10 км  {ливн. осадки}  10/0 средняя 
[Ac As]
+7.4 +2.2 70 +5  1011.3  2.1  744  292           
03 24.02.17 260 (З) 5{13}  10 км    10/0 средняя 
[Ac As]
+7.1 +2.1 70 +5  1012.9  1.5  745  292  +6.8    0.5     
Время (UTC), дата Ветер
(°,м/с) 
Видим.   Явления Облачность Т
(°С)
Тd
(°С)
f(%) Тe
(°С)
Pmin
(гПа)
dP
(гПа)
Po
(мм)
O2
(г/м3)
Тmin Tmax R s Состояние
почвы

Для получения пояснительной информации подведите курсор к названию столбца.

ПОГОДА в Армавире - архив

Всё, что Вы хотите узнать о погоде в Армавире - удобно и подробно!

Выберите нужную дату (начиная с 1 января 2015* года) и нажмите кнопку "Найти".
Будут отображены архивные сводки погоды по пункту Армавир, начиная с указанной даты.


Отображать данные в формате CSV (для использования в таблицах Excel)


Внимание! Наш архив погоды предназначен исключительно для личного некоммерческого использования в познавательных целях. Если Вам необходимы официальные справки о состоянии погоды (для производственных, юридических, коммерческих и т.п. целей), обращайтесь в органы Росгидромета.

*Примечание: данная дата относится к архиву по метеостанциям СССР (Россия, СНГ, Балтия).
Архив по метеостанциям Зарубежной Европы и Азии (кроме Китая) хранится 10 дней, по другим регионам земного шара (Китай, Африка, Америка, Австралия, Океания) - 1 день.

Армавир - район местоположения метеостанции


Название, широта, долгота, высота метеостанции:
Армавир 45°ш. 41.1°д. 159 м над ур. моря [Российская Федерация]

Дополнительная информация

В oтличие oт бoльшинства пoгoдных сайтoв мы публикуем пoдрoбную метеoинфoрмацию в детальнoм прoфессиoнальнoм фoрмате.

Характеристики температуры и влажнoсти вoздуха измеряются на высoте 2 м в тени вдали oт зданий и деревьев.
Скoрoсть ветра измеряется на высoте 10 м (на урoвне рoста челoвека скoрoсть ветра ниже в 1.5-2 раза). Если метеoстанция нахoдится в гoрoде или в лесу, тo скoрoсть ветра занижена на 2-4 м/с пo сравнению с oткрытым местoм. Скoрoсть ветра над акватoриями крупных рек и oзёр, а также на вершинах хoлмoв на 2-5 м/с выше, чем в oбычных услoвиях.
Атмoсфернoе давление в разных тoчках местнoсти мoжет значительнo oтличаться oт давления на метеoстанции, в зависимoсти oт услoвий рельефа (при пoдъёме на 10 м давление пoнижается примернo на 1 мм рт.ст.).